#timestamp,LO_Frequency,Hit,StdDev 
1561104015.1,286047002.2,N
1561104035.9,286047002.7,N
1561104055.7,286046999.8,N
1561104075.5,286047001.1,N
1561104095.4,286046998.3,N
1561104115.2,286047000.8,N
1561104135.0,286046998.2,N
1561104135.9,286046998.2,N
1561104155.8,286046999.4,N
1561104175.6,286046999.5,N
1561104195.4,286046999.5,N
1561104215.3,286046999.1,N
1561104235.1,286046998.3,N
1561104255.8,286046998.3,N
1561104275.7,286047001.2,N
1561104295.5,286046998.5,N
1561104315.3,286047001.2,N
1561104335.2,286046998.1,N
1561104355.9,286047001.0,N
1561104375.7,286047000.8,N
1561104395.6,286047000.8,N
1561104415.4,286047000.3,N
1561104435.2,286047001.1,N
1561104455.1,286046998.3,N
1561104456.0,286046998.3,N
1561104475.8,286046997.2,N
1561104495.6,286046997.8,N
1561104515.5,286046995.1,N
1561104535.3,286046995.3,N
1561104555.1,286046995.0,N
1561104575.9,286046994.9,N
1561104595.7,286046995.2,N
1561104615.5,286046998.0,N
1561104635.4,286046995.4,N
1561104655.2,286046995.3,N
1561104675.0,286046997.9,N
1561104675.9,286046997.9,N
1561104695.8,286046995.6,N
1561104715.6,286046994.9,N
1561104735.4,286046996.3,N
1561104755.3,286046993.4,Y
1561104775.1,286046997.2,P
1561104795.8,286046994.9,P
1561104815.7,286046997.1,N
1561104835.5,286046995.1,Y
1561104855.3,286047000.0,P
1561104875.2,286046998.8,N
1561104895.0,286046998.8,N
1561104895.9,286046998.8,N
1561104915.7,286046998.1,N
1561104935.6,286046998.1,N
1561104955.4,286046998.2,N
1561104975.2,286046998.2,N
1561104995.1,286046999.5,N
1561104996.0,286046999.5,N
1561105015.8,286046998.3,N
1561105035.6,286047001.2,N
1561105055.5,286047001.0,N
1561105075.3,286047000.7,N
1561105095.1,286047000.8,N
1561105145.9,286046999.1,E
1561105155.8,286046998.7,N
1561105175.7,286047001.0,P
1561105195.5,286046998.3,N
1561105215.3,286046999.5,N
1561105235.2,286046996.6,Y
1561105255.9,286046999.4,P
1561105275.7,286046998.9,P
1561105295.6,286046998.3,P
1561105315.4,286046999.4,N
1561105335.2,286046999.1,N
1561105355.1,286046998.4,Y
1561105356.0,286046998.4,P
1561105375.8,286046999.7,N
1561105395.6,286046999.5,N
1561105415.5,286046997.3,Y
1561105435.3,286046997.5,P
1561105455.1,286046993.7,P
1561105475.9,286046993.7,N
1561105495.7,286046994.2,N
1561105515.5,286046994.3,N
1561105535.4,286046994.0,N
1561105555.2,286046995.8,N
1561105575.0,286046993.5,Y
1561105575.9,286046993.5,P
1561105595.8,286046998.8,N
1561105615.6,286047000.7,N
1561105635.4,286047000.9,N
1561105655.3,286046998.4,N
1561105675.1,286046998.4,N
1561105695.8,286046996.7,N
1561105715.7,286046997.8,N
1561105735.5,286046998.0,N
1561105755.3,286046997.0,N
1561105775.2,286046999.3,N
1561105795.0,286046997.7,N
1561105795.9,286046997.7,N
1561105815.7,286046997.4,N
1561105835.6,286046995.8,N
1561105855.4,286046996.3,N
1561105875.2,286046996.3,N
1561105895.1,286046993.9,Y
1561105896.0,286046993.9,P
1561105915.8,286046997.5,N
1561105935.6,286046995.8,N
1561105955.5,286046996.2,N
1561105975.3,286046995.7,Y
1561105995.1,286046998.4,P
1561106015.9,286046998.1,N
1561106035.7,286046998.1,N
1561106055.5,286046998.8,N
1561106075.4,286046998.6,N
1561106095.2,286047000.8,N
1561106115.0,286047001.2,N
1561106116.0,286047001.2,N
1561106135.8,286046999.3,N
1561106155.6,286046996.8,N
1561106175.5,286046997.0,N
1561106195.3,286046996.5,N
1561106215.1,286046996.9,N
1561106235.9,286046997.0,N
1561106255.7,286046996.9,N
1561106275.5,286046996.9,N
1561106295.3,286046999.6,N
1561106315.2,286046999.5,N
1561106335.0,286046999.4,N
1561106335.9,286046999.4,N
1561106355.8,286046996.9,N
1561106375.6,286046998.3,N
1561106395.4,286046998.8,N
1561106415.3,286046998.6,N
1561106435.1,286046999.4,N
1561106436.0,286046999.4,N
1561106455.8,286046999.6,N
1561106475.7,286046997.3,N
1561106495.5,286046999.4,N
1561106515.3,286046998.6,N
1561106535.1,286046998.1,N
1561106555.9,286046998.2,N
1561106575.7,286046999.5,N
1561106595.5,286046996.5,N
1561106615.4,286046996.8,N
1561106635.2,286046997.4,N
1561106655.0,286046999.2,N
1561106656.0,286046999.2,N
1561106675.8,286046997.3,N
1561106695.6,286046997.1,N
1561106715.5,286046997.4,N
1561106735.3,286046997.4,N
1561106755.1,286046994.9,Y
1561106775.9,286046998.2,P
1561106795.7,286046998.3,P
1561106815.5,286047000.6,P
1561106835.4,286046999.9,N
1561106855.2,286047001.0,N
1561106875.0,286046998.5,N
1561106875.9,286046998.5,N
1561106895.8,286047000.5,N
1561106915.6,286047000.0,N
1561106935.4,286047002.8,N
1561106955.3,286046999.9,N
1561106975.1,286047000.0,N
1561106976.0,286047000.0,N
1561106995.8,286047000.4,N
1561107015.7,286046998.1,N
1561107035.5,286047001.1,N
1561107055.3,286047000.7,N
1561107075.2,286046998.6,N
1561107095.9,286046998.6,N
1561107145.7,286046996.5,E
1561107155.7,286046998.4,N
1561107175.5,286046999.7,P
1561107195.3,286047000.3,N
1561107215.1,286047000.2,N
1561107235.9,286047000.4,N
1561107255.7,286047000.5,N
1561107275.6,286047002.4,Y
1561107295.4,286047002.4,P
1561107315.2,286047000.7,N
1561107335.1,286047000.8,N
1561107336.0,286047000.8,N
1561107355.8,286047000.9,N
1561107375.6,286047000.7,N
1561107395.5,286046999.4,N
1561107415.3,286046996.6,Y
1561107435.1,286046999.0,P
1561107455.9,286047001.1,N
1561107475.7,286047000.4,N
1561107495.5,286046998.2,N
1561107515.4,286046998.3,N
1561107535.2,286046999.0,N
1561107555.0,286046998.2,N
1561107555.9,286046998.2,N
1561107575.8,286046998.2,N
1561107595.6,286047000.6,N
